Location: ??
(34.9170°N, 135.5016°E)
Time: 04:09:57
(UTC+00:00)

Explorer 7 - Pass Details

Date: 06 March 2021
Orbit: 484 x 677 km, 50.3° (Epoch: 14 April)

Event Time Altitude Azimuth Distance (km) Brightness Sun altitude
Rises 06:55:50 0° 308° (NW) 2,866 10.8 23.2°
Maximum altitude 07:01:03 10° 360° (N) 1,887 9.4 22.2°
Drops below altitude 10° 07:01:06 10° 0° (N) 1,886 9.4 22.2°
Sets 07:06:03 0° 52° (NE) 2,708 9.8 21.3°
